| time (UTC) | temp F | wind direction | speed MPH | gust MPH | rain 1hr in | rain 24hr in | rain mn in | humidity % | barometer mb |
| 20260901092034 | 62 | 202 | 8.0 | 24.0 | 0.00 | 0.02 | 0.00 | 77 | 1015.8 |
| 20260901091033 | 60 | 212 | 15.0 | 24.0 | 0.00 | 0.02 | 0.00 | 78 | 1015.8 |
| 20260901090533 | 60 | 199 | 13.0 | 23.0 | 0.00 | 0.02 | 0.00 | 79 | 1015.8 |
| 20260901085032 | 60 | 216 | 11.0 | 20.0 | 0.00 | 0.02 | 0.00 | 80 | 1016.0 |
| 20260901084534 | 59 | 223 | 13.0 | 25.0 | 0.00 | 0.02 | 0.00 | 80 | 1016.0 |
| 20260901084033 | 59 | 243 | 7.0 | 25.0 | 0.00 | 0.02 | 0.00 | 80 | 1015.8 |
| 20260901083533 | 59 | 189 | 9.0 | 18.0 | 0.00 | 0.02 | 0.00 | 81 | 1015.8 |
| 20260901083035 | 58 | 227 | 10.0 | 20.0 | 0.00 | 0.02 | 0.00 | 81 | 1015.7 |
| 20260901082032 | 58 | 189 | 14.0 | 22.0 | 0.00 | 0.02 | 0.00 | 81 | 1015.8 |
| 20260901081533 | 58 | 303 | 7.0 | 20.0 | 0.00 | 0.02 | 0.00 | 82 | 1015.8 |
| 20260901081033 | 58 | 282 | 8.0 | 20.0 | 0.00 | 0.02 | 0.00 | 83 | 1015.8 |
| 20260901080534 | 57 | 238 | 11.0 | 19.0 | 0.00 | 0.02 | 0.00 | 83 | 1015.7 |
| 20260901080031 | 57 | 238 | 8.0 | 18.0 | 0.00 | 0.02 | 0.00 | 83 | 1015.8 |
| 20260901075533 | 57 | 203 | 10.0 | 18.0 | 0.00 | 0.02 | 0.00 | 83 | 1015.8 |
| 20260901075034 | 57 | 227 | 10.0 | 18.0 | 0.00 | 0.02 | 0.00 | 84 | 1015.7 |
| 20260901074533 | 57 | 180 | 11.0 | 18.0 | 0.00 | 0.02 | 0.00 | 84 | 1015.8 |
| 20260901074033 | 57 | 216 | 9.0 | 17.0 | 0.00 | 0.02 | 0.00 | 84 | 1015.7 |
| 20260901073533 | 56 | 233 | 7.0 | 14.0 | 0.00 | 0.02 | 0.00 | 84 | 1015.7 |
| 20260901071531 | 56 | 202 | 9.0 | 16.0 | 0.00 | 0.02 | 0.00 | 85 | 1015.8 |
| 20260901070531 | 55 | 220 | 8.0 | 17.0 | 0.00 | 0.02 | 0.00 | 86 | 1015.8 |
| 20260901070034 | 55 | 230 | 8.0 | 16.0 | 0.00 | 0.02 | 0.00 | 86 | 1015.7 |
| 20260901065534 | 55 | 255 | 9.0 | 17.0 | 0.00 | 0.02 | 0.00 | 86 | 1015.6 |
| 20260901064533 | 55 | 224 | 10.0 | 17.0 | 0.00 | 0.02 | 0.00 | 86 | 1015.7 |
| 20260901064032 | 55 | 197 | 11.0 | 16.0 | 0.00 | 0.02 | 0.00 | 86 | 1015.7 |
| 20260901063033 | 55 | 238 | 6.0 | 12.0 | 0.00 | 0.02 | 0.00 | 87 | 1015.8 |
| 20260901062035 | 54 | 237 | 7.0 | 14.0 | 0.00 | 0.02 | 0.00 | 87 | 1015.9 |
| 20260901061532 | 54 | 210 | 10.0 | 15.0 | 0.00 | 0.02 | 0.00 | 87 | 1015.7 |
| 20260901061035 | 54 | 213 | 9.0 | 15.0 | 0.00 | 0.02 | 0.00 | 87 | 1015.7 |
| 20260901060013 | 54 | 254 | 7.0 | 14.0 | 0.00 | 0.02 | 0.00 | 87 | 1015.9 |
| 20260901055504 | 53 | 230 | 8.0 | 14.0 | 0.00 | 0.02 | 0.00 | 87 | 1015.8 |
| 20260901055004 | 53 | 237 | 5.0 | 9.0 | 0.00 | 0.02 | 0.00 | 87 | 1015.8 |
| 20260901054504 | 53 | 233 | 4.0 | 8.0 | 0.00 | 0.02 | 0.00 | 87 | 1015.8 |
| 20260901054001 | 53 | 264 | 3.0 | 11.0 | 0.00 | 0.02 | 0.00 | 87 | 1015.8 |
| 20260901053501 | 53 | 233 | 6.0 | 11.0 | 0.00 | 0.02 | 0.00 | 87 | 1015.7 |
| 20260901052943 | 53 | 257 | 6.0 | 13.0 | 0.00 | 0.02 | 0.00 | 87 | 1015.8 |
| 20260901052442 | 53 | 204 | 7.0 | 14.0 | 0.00 | 0.02 | 0.00 | 87 | 1015.7 |
| 20260901051432 | 53 | 240 | 6.0 | 13.0 | 0.00 | 0.02 | 0.00 | 87 | 1015.6 |
| 20260901050444 | 53 | 207 | 5.0 | 13.0 | 0.00 | 0.02 | 0.00 | 87 | 1015.6 |
| 20260901045931 | 53 | 261 | 4.0 | 13.0 | 0.00 | 0.02 | 0.00 | 88 | 1015.7 |
| 20260901045434 | 52 | 210 | 4.0 | 13.0 | 0.00 | 0.02 | 0.00 | 88 | 1015.7 |
| 20260901044933 | 52 | 223 | 3.0 | 8.0 | 0.00 | 0.02 | 0.00 | 89 | 1015.7 |
| 20260901044434 | 52 | 231 | 4.0 | 12.0 | 0.00 | 0.02 | 0.00 | 89 | 1015.8 |
| 20260901043433 | 51 | 220 | 6.0 | 12.0 | 0.00 | 0.02 | 0.00 | 90 | 1015.8 |
| 20260901042932 | 51 | 241 | 3.0 | 12.0 | 0.00 | 0.02 | 0.00 | 92 | 1015.7 |
| 20260901042432 | 51 | 220 | 7.0 | 13.0 | 0.00 | 0.02 | 0.00 | 92 | 1015.6 |
| 20260901041937 | 50 | 213 | 6.0 | 13.0 | 0.00 | 0.02 | 0.00 | 92 | 1015.7 |
| 20260901041415 | 49 | 259 | 3.0 | 8.0 | 0.00 | 0.02 | 0.00 | 91 | 1015.7 |
| 20260901040912 | 49 | 250 | 4.0 | 8.0 | 0.00 | 0.02 | 0.00 | 91 | 1015.7 |
| 20260901040412 | 49 | 295 | 2.0 | 11.0 | 0.00 | 0.02 | 0.00 | 91 | 1015.7 |
| 20260901035850 | 49 | 275 | 2.0 | 11.0 | 0.00 | 0.02 | 0.00 | 91 | 1015.7 |
| 20260901035346 | 49 | 247 | 2.0 | 8.0 | 0.00 | 0.02 | 0.00 | 91 | 1015.8 |
| 20260901034841 | 49 | 271 | 2.0 | 6.0 | 0.00 | 0.02 | 0.00 | 90 | 1015.9 |
| 20260901034337 | 49 | 271 | 3.0 | 6.0 | 0.00 | 0.02 | 0.00 | 90 | 1015.8 |
| 20260901033830 | 49 | 257 | 3.0 | 6.0 | 0.00 | 0.02 | 0.00 | 90 | 1015.9 |
| 20260901032832 | 49 | 274 | 3.0 | 7.0 | 0.00 | 0.02 | 0.00 | 90 | 1015.8 |
| 20260901032307 | 49 | 279 | 4.0 | 8.0 | 0.00 | 0.02 | 0.00 | 90 | 1015.7 |
| 20260901031809 | 48 | 224 | 4.0 | 8.0 | 0.00 | 0.02 | 0.00 | 90 | 1015.8 |
| 20260901031304 | 48 | 269 | 3.0 | 7.0 | 0.00 | 0.02 | 0.00 | 90 | 1015.9 |
| 20260901030804 | 49 | 265 | 3.0 | 6.0 | 0.00 | 0.02 | 0.00 | 89 | 1015.9 |
| 20260901030303 | 49 | 262 | 3.0 | 6.0 | 0.00 | 0.02 | 0.00 | 88 | 1015.9 |
| 20260901025804 | 49 | 251 | 3.0 | 7.0 | 0.00 | 0.02 | 0.00 | 88 | 1015.9 |
| 20260901024802 | 49 | 250 | 2.0 | 9.0 | 0.00 | 0.02 | 0.00 | 88 | 1015.8 |
| 20260901024304 | 49 | 262 | 3.0 | 9.0 | 0.00 | 0.02 | 0.00 | 87 | 1015.9 |
| 20260901023258 | 50 | 271 | 3.0 | 7.0 | 0.00 | 0.02 | 0.00 | 86 | 1015.9 |
| 20260901022755 | 50 | 244 | 4.0 | 8.0 | 0.00 | 0.02 | 0.00 | 85 | 1015.9 |
| 20260901022239 | 51 | 266 | 4.0 | 7.0 | 0.00 | 0.02 | 0.00 | 85 | 1016.0 |
| 20260901021732 | 51 | 261 | 3.0 | 8.0 | 0.00 | 0.02 | 0.00 | 85 | 1016.0 |
| 20260901021234 | 51 | 282 | 3.0 | 11.0 | 0.00 | 0.02 | 0.00 | 85 | 1016.1 |
| 20260901020733 | 52 | 200 | 5.0 | 11.0 | 0.00 | 0.02 | 0.00 | 85 | 1016.1 |
| 20260901020232 | 52 | 248 | 6.0 | 11.0 | 0.00 | 0.02 | 0.00 | 85 | 1016.0 |
| 20260901015731 | 52 | 195 | 6.0 | 11.0 | 0.00 | 0.02 | 0.00 | 85 | 1016.0 |
| 20260901015232 | 52 | 221 | 6.0 | 13.0 | 0.00 | 0.02 | 0.00 | 85 | 1015.9 |
| 20260901014733 | 51 | 233 | 7.0 | 13.0 | 0.00 | 0.02 | 0.00 | 85 | 1015.9 |
| 20260901013733 | 51 | 207 | 7.0 | 11.0 | 0.00 | 0.02 | 0.00 | 86 | 1015.9 |
| 20260901013233 | 51 | 257 | 5.0 | 8.0 | 0.00 | 0.02 | 0.00 | 85 | 1016.0 |
| 20260901012730 | 51 | 251 | 3.0 | 8.0 | 0.00 | 0.02 | 0.00 | 84 | 1015.9 |
| 20260901011733 | 52 | 243 | 5.0 | 13.0 | 0.00 | 0.02 | 0.00 | 84 | 1016.0 |
| 20260901011231 | 52 | 279 | 7.0 | 13.0 | 0.00 | 0.02 | 0.00 | 84 | 1015.9 |
| 20260901010731 | 52 | 237 | 4.0 | 13.0 | 0.00 | 0.02 | 0.00 | 84 | 1015.9 |
| 20260901010229 | 52 | 226 | 9.0 | 13.0 | 0.00 | 0.02 | 0.00 | 84 | 1015.8 |
| 20260901005734 | 52 | 217 | 9.0 | 13.0 | 0.00 | 0.02 | 0.00 | 84 | 1015.8 |
| 20260901005231 | 52 | 252 | 6.0 | 13.0 | 0.00 | 0.02 | 0.00 | 84 | 1015.7 |
| 20260901004731 | 52 | 221 | 5.0 | 13.0 | 0.00 | 0.02 | 0.00 | 84 | 1015.8 |
| 20260901004231 | 52 | 251 | 6.0 | 14.0 | 0.00 | 0.02 | 0.00 | 84 | 1015.7 |
| 20260901003230 | 52 | 259 | 3.0 | 12.0 | 0.00 | 0.02 | 0.00 | 84 | 1015.7 |
| 20260901002730 | 52 | 250 | 4.0 | 12.0 | 0.00 | 0.02 | 0.00 | 84 | 1015.8 |
| 20260901002233 | 52 | 254 | 6.0 | 14.0 | 0.00 | 0.02 | 0.00 | 84 | 1015.7 |
| 20260901001731 | 52 | 213 | 8.0 | 14.0 | 0.00 | 0.02 | 0.00 | 84 | 1015.7 |
| 20260901001230 | 52 | 226 | 8.0 | 13.0 | 0.00 | 0.02 | 0.00 | 84 | 1015.7 |
| 20260901000229 | 52 | 210 | 7.0 | 12.0 | 0.00 | 0.02 | 0.00 | 83 | 1015.7 |
| 20260831235733 | 52 | 240 | 6.0 | 11.0 | 0.00 | 0.02 | 0.00 | 83 | 1015.7 |
| 20260831235232 | 52 | 274 | 4.0 | 11.0 | 0.00 | 0.02 | 0.00 | 83 | 1015.7 |
| 20260831234736 | 52 | 230 | 6.0 | 11.0 | 0.00 | 0.02 | 0.00 | 83 | 1015.6 |
| 20260831234231 | 52 | 209 | 5.0 | 11.0 | 0.00 | 0.02 | 0.00 | 84 | 1015.7 |
| 20260831233732 | 52 | 244 | 5.0 | 13.0 | 0.00 | 0.02 | 0.00 | 84 | 1015.6 |
| 20260831233233 | 52 | 278 | 7.0 | 13.0 | 0.00 | 0.02 | 0.00 | 84 | 1015.6 |
| 20260831232730 | 52 | 235 | 5.0 | 13.0 | 0.00 | 0.02 | 0.00 | 84 | 1015.6 |
| 20260831232232 | 52 | 243 | 6.0 | 12.0 | 0.00 | 0.02 | 0.00 | 84 | 1015.5 |
| 20260831231232 | 52 | 237 | 6.0 | 11.0 | 0.00 | 0.02 | 0.00 | 84 | 1015.6 |
| 20260831230733 | 52 | 241 | 7.0 | 11.0 | 0.00 | 0.02 | 0.00 | 84 | 1015.5 |
| 20260831230238 | 52 | 259 | 6.0 | 12.0 | 0.00 | 0.02 | 0.00 | 84 | 1015.5 |
| 20260831225720 | 52 | 237 | 7.0 | 12.0 | 0.00 | 0.02 | 0.02 | 84 | 1015.5 |
| 20260831225219 | 52 | 235 | 3.0 | 11.0 | 0.00 | 0.02 | 0.02 | 84 | 1015.6 |
| 20260831224706 | 52 | 220 | 4.0 | 12.0 | 0.00 | 0.02 | 0.02 | 83 | 1015.5 |
| 20260831223704 | 52 | 261 | 3.0 | 9.0 | 0.00 | 0.02 | 0.02 | 82 | 1015.5 |
| 20260831223141 | 53 | 265 | 4.0 | 11.0 | 0.00 | 0.02 | 0.02 | 82 | 1015.5 |
| 20260831222635 | 53 | 266 | 5.0 | 13.0 | 0.00 | 0.02 | 0.02 | 82 | 1015.4 |
| 20260831222132 | 53 | 248 | 5.0 | 13.0 | 0.00 | 0.02 | 0.02 | 82 | 1015.5 |
| 20260831221632 | 53 | 240 | 5.0 | 13.0 | 0.00 | 0.02 | 0.02 | 82 | 1015.4 |
| 20260831221132 | 53 | 223 | 4.0 | 11.0 | 0.00 | 0.02 | 0.02 | 81 | 1015.3 |
| 20260831220633 | 53 | 238 | 5.0 | 11.0 | 0.00 | 0.02 | 0.02 | 81 | 1015.3 |
| 20260831220134 | 53 | 289 | 5.0 | 9.0 | 0.00 | 0.02 | 0.02 | 81 | 1015.2 |
| 20260831215632 | 53 | 243 | 6.0 | 11.0 | 0.00 | 0.02 | 0.02 | 81 | 1015.2 |
| 20260831215133 | 53 | 195 | 4.0 | 11.0 | 0.00 | 0.02 | 0.02 | 80 | 1015.2 |
| 20260831214632 | 53 | 241 | 5.0 | 11.0 | 0.00 | 0.02 | 0.02 | 80 | 1015.2 |
| 20260831214133 | 53 | 250 | 5.0 | 11.0 | 0.00 | 0.02 | 0.02 | 80 | 1015.1 |
| 20260831213632 | 53 | 250 | 5.0 | 11.0 | 0.00 | 0.02 | 0.02 | 80 | 1015.2 |
| 20260831212632 | 53 | 257 | 7.0 | 12.0 | 0.00 | 0.02 | 0.02 | 80 | 1015.2 |
| 20260831212133 | 53 | 237 | 5.0 | 11.0 | 0.00 | 0.02 | 0.02 | 79 | 1015.2 |
| 20260831211633 | 53 | 251 | 5.0 | 11.0 | 0.00 | 0.02 | 0.02 | 79 | 1015.2 |
| 20260831210631 | 54 | 261 | 2.0 | 9.0 | 0.00 | 0.02 | 0.02 | 80 | 1015.2 |
| 20260831210131 | 54 | 261 | 4.0 | 9.0 | 0.00 | 0.02 | 0.02 | 80 | 1015.1 |
| 20260831205633 | 54 | 248 | 2.0 | 8.0 | 0.00 | 0.02 | 0.02 | 80 | 1015.0 |
| 20260831205132 | 54 | 224 | 3.0 | 8.0 | 0.00 | 0.02 | 0.02 | 79 | 1014.9 |
| 20260831204631 | 54 | 230 | 3.0 | 8.0 | 0.00 | 0.02 | 0.02 | 79 | 1014.8 |
| 20260831204132 | 54 | 212 | 4.0 | 8.0 | 0.00 | 0.02 | 0.02 | 79 | 1014.8 |
| 20260831203630 | 54 | 224 | 3.0 | 8.0 | 0.00 | 0.02 | 0.02 | 80 | 1014.8 |
| 20260831203132 | 55 | 262 | 5.0 | 8.0 | 0.00 | 0.02 | 0.02 | 80 | 1014.7 |
| 20260831201632 | 55 | 193 | 4.0 | 8.0 | 0.00 | 0.06 | 0.02 | 79 | 1014.8 |
| 20260831200631 | 55 | 243 | 4.0 | 8.0 | 0.00 | 0.08 | 0.02 | 80 | 1014.6 |
| 20260831200132 | 55 | 255 | 4.0 | 8.0 | 0.00 | 0.09 | 0.02 | 80 | 1014.6 |
| 20260831195133 | 56 | 221 | 4.0 | 7.0 | 0.00 | 0.12 | 0.02 | 79 | 1014.3 |
| 20260831194632 | 56 | 257 | 3.0 | 8.0 | 0.00 | 0.13 | 0.02 | 79 | 1014.2 |
| 20260831194132 | 56 | 237 | 4.0 | 8.0 | 0.00 | 0.13 | 0.02 | 77 | 1014.2 |
| 20260831193631 | 56 | 233 | 4.0 | 7.0 | 0.00 | 0.13 | 0.02 | 77 | 1014.0 |
| 20260831192631 | 57 | 262 | 2.0 | 11.0 | 0.00 | 0.13 | 0.02 | 76 | 1013.9 |
| 20260831192130 | 57 | 292 | 4.0 | 12.0 | 0.00 | 0.13 | 0.02 | 76 | 1013.8 |
| 20260831191626 | 57 | 240 | 5.0 | 12.0 | 0.00 | 0.13 | 0.02 | 75 | 1013.9 |
| 20260831191118 | 57 | 234 | 6.0 | 14.0 | 0.00 | 0.13 | 0.02 | 75 | 1013.8 |
| 20260831190106 | 57 | 238 | 10.0 | 17.0 | 0.00 | 0.13 | 0.02 | 76 | 1013.6 |
| 20260831185543 | 58 | 224 | 5.0 | 15.0 | 0.00 | 0.13 | 0.02 | 76 | 1013.4 |
| 20260831185034 | 58 | 237 | 6.0 | 9.0 | 0.00 | 0.13 | 0.02 | 77 | 1013.3 |
| 20260831184534 | 58 | 259 | 5.0 | 9.0 | 0.00 | 0.13 | 0.02 | 78 | 1013.2 |
| 20260831184032 | 58 | 259 | 4.0 | 11.0 | 0.00 | 0.13 | 0.02 | 77 | 1013.1 |
| 20260831183531 | 59 | 238 | 4.0 | 12.0 | 0.00 | 0.13 | 0.02 | 77 | 1013.1 |
| 20260831182533 | 59 | 271 | 5.0 | 14.0 | 0.00 | 0.14 | 0.02 | 76 | 1012.8 |
| 20260831182031 | 60 | 251 | 5.0 | 12.0 | 0.00 | 0.14 | 0.02 | 74 | 1012.8 |
| 20260831181533 | 60 | 259 | 6.0 | 16.0 | 0.00 | 0.14 | 0.02 | 74 | 1012.7 |
| 20260831181030 | 61 | 244 | 6.0 | 23.0 | 0.00 | 0.14 | 0.02 | 73 | 1012.6 |
| 20260831180531 | 61 | 269 | 11.0 | 23.0 | 0.00 | 0.14 | 0.02 | 72 | 1012.5 |
| 20260831175533 | 62 | 293 | 9.0 | 20.0 | 0.00 | 0.14 | 0.02 | 70 | 1012.4 |
| 20260831175030 | 62 | 281 | 11.0 | 19.0 | 0.00 | 0.14 | 0.02 | 70 | 1012.4 |
| 20260831174528 | 63 | 265 | 12.0 | 19.0 | 0.00 | 0.14 | 0.02 | 70 | 1012.2 |
| 20260831174030 | 63 | 278 | 11.0 | 18.0 | 0.00 | 0.14 | 0.02 | 70 | 1012.1 |
| 20260831173529 | 63 | 278 | 11.0 | 18.0 | 0.00 | 0.14 | 0.02 | 70 | 1012.1 |
| 20260831172020 | 63 | 255 | 5.0 | 16.0 | 0.00 | 0.14 | 0.02 | 71 | 1011.7 |
| 20260831171003 | 63 | 243 | 11.0 | 18.0 | 0.00 | 0.14 | 0.02 | 70 | 1011.7 |
| 20260831170504 | 63 | 257 | 12.0 | 18.0 | 0.00 | 0.14 | 0.02 | 70 | 1011.6 |
| 20260831165954 | 64 | 290 | 12.0 | 18.0 | 0.00 | 0.14 | 0.02 | 70 | 1011.7 |
| 20260831164930 | 64 | 224 | 8.0 | 18.0 | 0.00 | 0.14 | 0.02 | 73 | 1011.4 |
| 20260831164435 | 64 | 268 | 11.0 | 21.0 | 0.00 | 0.14 | 0.02 | 77 | 1011.3 |
| 20260831163433 | 64 | 219 | 11.0 | 17.0 | 0.02 | 0.15 | 0.02 | 77 | 1011.1 |
| 20260831162931 | 64 | 259 | 7.0 | 14.0 | 0.02 | 0.15 | 0.02 | 78 | 1011.1 |
| 20260831162431 | 64 | 248 | 5.0 | 13.0 | 0.02 | 0.17 | 0.02 | 81 | 1011.1 |
| 20260831161933 | 64 | 268 | 8.0 | 15.0 | 0.02 | 0.24 | 0.02 | 81 | 1011.0 |
| 20260831161435 | 63 | 293 | 8.0 | 15.0 | 0.02 | 0.25 | 0.02 | 81 | 1011.0 |
| 20260831160931 | 63 | 255 | 6.0 | 12.0 | 0.02 | 0.26 | 0.02 | 85 | 1010.9 |
| 20260831154929 | 63 | 312 | 5.0 | 16.0 | 0.02 | 0.26 | 0.02 | 82 | 1010.7 |
| 20260831154428 | 64 | 234 | 8.0 | 17.0 | 0.02 | 0.26 | 0.02 | 80 | 1010.7 |
| 20260831153930 | 65 | 214 | 8.0 | 17.0 | 0.02 | 0.26 | 0.02 | 76 | 1010.7 |
| 20260831153429 | 66 | 244 | 6.0 | 12.0 | 0.00 | 0.24 | 0.00 | 74 | 1010.5 |
| 20260831152906 | 66 | 227 | 2.0 | 12.0 | 0.00 | 0.24 | 0.00 | 72 | 1010.3 |
| 20260831152403 | 66 | 275 | 4.0 | 12.0 | 0.00 | 0.24 | 0.00 | 72 | 1010.3 |
| 20260831151406 | 66 | 274 | 8.0 | 14.0 | 0.00 | 0.24 | 0.00 | 71 | 1010.3 |
| 20260831150903 | 66 | 238 | 6.0 | 17.0 | 0.00 | 0.24 | 0.00 | 71 | 1010.3 |
| 20260831150405 | 66 | 276 | 8.0 | 17.0 | 0.00 | 0.24 | 0.00 | 72 | 1010.1 |
| 20260831145332 | 66 | 224 | 6.0 | 15.0 | 0.00 | 0.24 | 0.00 | 72 | 1010.0 |
| 20260831144332 | 67 | 221 | 10.0 | 16.0 | 0.00 | 0.24 | 0.00 | 75 | 1009.8 |
| 20260831143832 | 67 | 241 | 9.0 | 16.0 | 0.00 | 0.24 | 0.00 | 75 | 1009.9 |
| 20260831143330 | 66 | 231 | 7.0 | 16.0 | 0.00 | 0.24 | 0.00 | 77 | 1009.7 |
| 20260831142833 | 65 | 220 | 6.0 | 16.0 | 0.00 | 0.24 | 0.00 | 77 | 1009.7 |
| 20260831142333 | 65 | 206 | 11.0 | 16.0 | 0.00 | 0.24 | 0.00 | 79 | 1009.7 |
| 20260831141832 | 65 | 212 | 10.0 | 15.0 | 0.00 | 0.24 | 0.00 | 79 | 1009.7 |
| 20260831140833 | 66 | 244 | 7.0 | 16.0 | 0.00 | 0.24 | 0.00 | 77 | 1009.7 |
| 20260831140332 | 66 | 248 | 6.0 | 15.0 | 0.00 | 0.24 | 0.00 | 75 | 1009.5 |
| 20260831135831 | 66 | 244 | 10.0 | 15.0 | 0.00 | 0.24 | 0.00 | 78 | 1009.5 |
| 20260831135332 | 64 | 285 | 7.0 | 15.0 | 0.00 | 0.24 | 0.00 | 76 | 1009.5 |
| 20260831133833 | 66 | 288 | 11.0 | 22.0 | 0.00 | 0.24 | 0.00 | 72 | 1009.2 |
| 20260831132830 | 66 | 289 | 6.0 | 18.0 | 0.00 | 0.24 | 0.00 | 72 | 1008.9 |
| 20260831132333 | 66 | 278 | 9.0 | 18.0 | 0.00 | 0.24 | 0.00 | 72 | 1008.9 |
| 20260831131831 | 66 | 250 | 8.0 | 15.0 | 0.00 | 0.24 | 0.00 | 71 | 1008.9 |
| 20260831130833 | 67 | 268 | 4.0 | 11.0 | 0.00 | 0.24 | 0.00 | 72 | 1008.8 |
| 20260831130336 | 66 | 283 | 5.0 | 11.0 | 0.00 | 0.24 | 0.00 | 71 | 1008.8 |
| 20260831125331 | 66 | 252 | 3.0 | 14.0 | 0.00 | 0.24 | 0.00 | 72 | 1008.7 |
| 20260831124832 | 65 | 330 | 7.0 | 14.0 | 0.00 | 0.24 | 0.00 | 72 | 1008.7 |
| 20260831123832 | 65 | 279 | 6.0 | 15.0 | 0.00 | 0.24 | 0.00 | 72 | 1008.6 |
| 20260831123331 | 66 | 290 | 10.0 | 15.0 | 0.00 | 0.24 | 0.00 | 71 | 1008.5 |
| 20260831122831 | 66 | 306 | 7.0 | 15.0 | 0.00 | 0.24 | 0.00 | 73 | 1008.6 |
| 20260831122331 | 65 | 286 | 5.0 | 15.0 | 0.00 | 0.24 | 0.00 | 72 | 1008.5 |
| 20260831121831 | 65 | 247 | 7.0 | 14.0 | 0.00 | 0.24 | 0.00 | 73 | 1008.4 |
| 20260831121332 | 65 | 282 | 6.0 | 14.0 | 0.00 | 0.24 | 0.00 | 73 | 1008.3 |
| 20260831120831 | 65 | 299 | 7.0 | 15.0 | 0.00 | 0.24 | 0.00 | 72 | 1008.4 |
| 20260831120333 | 65 | 271 | 8.0 | 18.0 | 0.00 | 0.24 | 0.00 | 73 | 1008.3 |
| 20260831115831 | 66 | 282 | 7.0 | 18.0 | 0.00 | 0.24 | 0.00 | 73 | 1008.1 |
| 20260831115332 | 66 | 245 | 6.0 | 14.0 | 0.00 | 0.24 | 0.00 | 74 | 1008.0 |
| 20260831114831 | 66 | 220 | 7.0 | 13.0 | 0.00 | 0.24 | 0.00 | 76 | 1008.0 |
| 20260831114331 | 66 | 307 | 7.0 | 14.0 | 0.00 | 0.24 | 0.00 | 76 | 1007.9 |
| 20260831113830 | 66 | 306 | 5.0 | 14.0 | 0.00 | 0.24 | 0.00 | 78 | 1007.8 |
| 20260831113331 | 66 | 296 | 8.0 | 13.0 | 0.00 | 0.24 | 0.00 | 78 | 1007.8 |
| 20260831112831 | 66 | 309 | 5.0 | 11.0 | 0.00 | 0.24 | 0.00 | 78 | 1007.7 |
| 20260831112331 | 64 | 279 | 6.0 | 11.0 | 0.00 | 0.24 | 0.00 | 80 | 1007.7 |
| 20260831111832 | 64 | 282 | 6.0 | 13.0 | 0.00 | 0.24 | 0.00 | 81 | 1007.6 |
| 20260831111330 | 64 | 317 | 6.0 | 13.0 | 0.00 | 0.24 | 0.00 | 84 | 1007.6 |
| 20260831110831 | 64 | 274 | 5.0 | 13.0 | 0.00 | 0.24 | 0.00 | 84 | 1007.5 |
| 20260831110331 | 62 | 254 | 5.0 | 12.0 | 0.00 | 0.24 | 0.00 | 83 | 1007.5 |
| 20260831104829 | 63 | 228 | 7.0 | 13.0 | 0.00 | 0.24 | 0.00 | 83 | 1007.3 |
| 20260831104331 | 63 | 272 | 3.0 | 9.0 | 0.00 | 0.24 | 0.00 | 82 | 1007.2 |
| 20260831103832 | 64 | 234 | 5.0 | 9.0 | 0.00 | 0.24 | 0.00 | 82 | 1007.1 |
| 20260831102831 | 64 | 275 | 5.0 | 9.0 | 0.00 | 0.24 | 0.00 | 81 | 1007.0 |
| 20260831102332 | 63 | 238 | 3.0 | 9.0 | 0.00 | 0.24 | 0.00 | 84 | 1007.0 |
| 20260831101829 | 62 | 259 | 6.0 | 9.0 | 0.00 | 0.24 | 0.00 | 87 | 1007.0 |
| 20260831101332 | 61 | 309 | 5.0 | 11.0 | 0.00 | 0.24 | 0.00 | 86 | 1007.0 |
| 20260831100831 | 62 | 321 | 4.0 | 11.0 | 0.00 | 0.24 | 0.00 | 85 | 1006.9 |
| 20260831100330 | 62 | 286 | 3.0 | 11.0 | 0.00 | 0.24 | 0.00 | 85 | 1007.1 |
| 20260831095836 | 62 | 298 | 5.0 | 11.0 | 0.00 | 0.24 | 0.00 | 86 | 1007.0 |
| 20260831095331 | 62 | 283 | 4.0 | 12.0 | 0.00 | 0.24 | 0.00 | 86 | 1006.9 |
| 20260831094831 | 62 | 289 | 5.0 | 12.0 | 0.00 | 0.24 | 0.00 | 86 | 1006.9 |
| 20260831093829 | 61 | 266 | 3.0 | 11.0 | 0.00 | 0.24 | 0.00 | 90 | 1006.9 |
| 20260831093331 | 60 | 252 | 6.0 | 9.0 | 0.00 | 0.24 | 0.00 | 92 | 1006.8 |
| 20260831092832 | 59 | 252 | 5.0 | 8.0 | 0.00 | 0.24 | 0.00 | 92 | 1006.7 |